Location: Hoyos del Collado
(40.3594°N, 5.2003°W)
Time: 07:37:38
(UTC+00:00)

Cosmos 1300 Rocket - Visible Passes

Search period start: 13 July 2024 00:00
Search period end: 23 July 2024 00:00
Orbit: 598 x 622 km, 82.5° (Epoch: 12 July)

Date Brightness Start Highest point End Pass type
(mag) Time Alt. Az. Time Alt. Az. Time Alt. Az.
14 Jul 5.4 20:18:19 10° NNW 20:22:16 34° W 20:26:14 10° SSW visible
15 Jul 6.3 20:33:34 10° NW 20:36:44 20° W 20:39:54 10° SW visible
16 Jul 6.7 20:49:49 10° WNW 20:51:07 11° W 20:52:24 10° W visible
